Погода в Палм Кост

США     29°34′25″N   81°12′41″W
темп.,
°C
ветер,
м/с
пор.,
м/с
влажн.,
%
обл.,
%
осадки,
мм/ч
давл.,
гПа
погр.,
м
2 марта, вт
вт201:00+19ссв288689 0.6 1018331
04:00+17ссв2873100 0.0 1017303
07:00+18ссв4974100 0.0 1019556
10:00+18ссв4985100 0.1 1020553
13:00+20св3681100 0.1 1019507
16:00+19с4786100 0.1 1017397
19:00+17ссв51288100 0.4 1017591
22:00+18св3986100 0.0 1016570
3 марта, ср
ср301:00+17юв1198100 0.0 101426
04:00+18ююз31196100 0.1 1011516
07:00+19юз4138978 0.2 1012858
10:00+17с489274 1.3 1014476
13:00+17с477587 1.3 1015696
16:00+17с357093 0.0 1014858
19:00+15ссв378491 0.0 1016426
22:00+13с268948 0.0 1017256
4 марта, чт
чт401:00+13с259138 0.0 1017194
04:00+12ссз259334 0.0 1017202
07:00+11сз239640 0.0 1018118
10:00+17ссв356312 0.0 1019899
13:00+20св334910 0.0 10181100
16:00+19св34500 0.0 1016753
19:00+14св25670 0.0 1017118
22:00+13в12720 0.0 101826
5 марта, пт
пт501:00+12сз12760 0.0 101723
04:00+11сз12820 0.0 101730
07:00+11с12830 0.0 101723
10:00+20всв244817 0.0 10181211
13:00+22всв344352 0.0 10171521
16:00+20всв3448100 0.0 10161201
19:00+17св386996 0.0 1017416
22:00+16в2766100 0.0 1017211
6 марта, сб
сб601:00+16в267197 0.0 1016171
04:00+16в268193 0.4 1015192
07:00+15в269197 4.0 1014269
10:00+15в3795100 9.3 1016525
13:00+15св4994100 17.5 1014700
16:00+15ссв61293100 6.9 1013949
19:00+14с41289100 8.8 10151073
22:00+15ссв41187100 0.5 1016855